nws-alerts: Checking more than four warning/county codes can delay the loading of your pages. You should use a cron job to get the data.
EllijayWeather Station Historical Data
Daily Summary for December 21, 2018 Units:  English    Metric   Both
Daily Weekly Monthly Yearly Custom
  High: Low: Average:
Temperature: 47.8 °F 37.6 °F 42.9 °F
Dew Point: 20.3 °F 15.1 °F 17.4 °F
Humidity: 42% 32% 36%
Wind Speed: 4mph 0mph 0.3mph
Wind Gust: 15mph - -
Wind- - West
Pressure: 29.90 in 29.28 in -
Precipitation: 0.6 in    
Historical Graphs
 
 
Tabular Data for December 21, 2018
Time Temperature Dew Point Pressure Wind Wind Speed Wind Gust Humidity Rainfall Rate (Hourly) solar
00:04 47.8 °F 19.4 °F 29.41 in Calm     32% 0 in meteobridge W/m2
00:09 47.8 °F 19.4 °F 29.40 in North 0.9 mph 1 mph 32% 0 in meteobridge W/m2
00:14 47.8 °F 19.4 °F 29.40 in North 0.9 mph 1 mph 32% 0 in meteobridge W/m2
00:19 47.8 °F 19.4 °F 29.40 in Calm     32% 0 in meteobridge W/m2
00:24 47.8 °F 19.4 °F 29.40 in Calm     32% 0 in meteobridge W/m2
00:29 47.7 °F 19.2 °F 29.39 in Calm     32% 0 in meteobridge W/m2
00:34 47.7 °F 19.2 °F 29.39 in Calm     32% 0 in meteobridge W/m2
00:39 47.7 °F 19.2 °F 29.39 in Calm     32% 0 in meteobridge W/m2
00:44 47.7 °F 19.2 °F 29.39 in Calm     32% 0.01 in meteobridge W/m2
00:49 47.7 °F 19.2 °F 29.38 in Calm     32% 0.01 in meteobridge W/m2
00:54 47.7 °F 19.2 °F 29.38 in Calm     32% 0.01 in meteobridge W/m2
00:59 47.5 °F 19 °F 29.38 in Calm     32% 0.01 in meteobridge W/m2
01:04 47.5 °F 19 °F 29.37 in Calm     32% 0.01 in meteobridge W/m2
01:09 47.5 °F 19 °F 29.37 in Calm     32% 0.01 in meteobridge W/m2
01:14 47.5 °F 19 °F 29.37 in Calm     32% 0.01 in meteobridge W/m2
01:19 47.5 °F 19 °F 29.37 in Calm     32% 0.01 in meteobridge W/m2
01:24 47.5 °F 19 °F 29.37 in Calm     32% 0.02 in meteobridge W/m2
01:29 47.5 °F 19 °F 29.36 in Calm     32% 0.02 in meteobridge W/m2
01:34 47.5 °F 19 °F 29.36 in Calm     32% 0.04 in meteobridge W/m2
01:39 47.5 °F 19 °F 29.36 in Calm     32% 0.05 in meteobridge W/m2
01:44 47.5 °F 19 °F 29.36 in Calm     32% 0.05 in meteobridge W/m2
01:49 47.5 °F 19 °F 29.36 in Calm     32% 0.06 in meteobridge W/m2
01:54 47.5 °F 19 °F 29.35 in Calm     32% 0.07 in meteobridge W/m2
01:59 47.5 °F 19 °F 29.35 in Calm     32% 0.09 in meteobridge W/m2
02:04 47.5 °F 19 °F 29.35 in Calm     32% 0.1 in meteobridge W/m2
02:09 47.5 °F 19 °F 29.35 in Calm     32% 0.11 in meteobridge W/m2
02:14 47.5 °F 19 °F 29.34 in Calm     32% 0.11 in meteobridge W/m2
02:19 47.5 °F 19 °F 29.34 in Calm     32% 0.11 in meteobridge W/m2
02:24 47.5 °F 19 °F 29.34 in Calm     32% 0.11 in meteobridge W/m2
02:29 47.5 °F 19 °F 29.34 in Calm     32% 0.1 in meteobridge W/m2
02:34 47.5 °F 19 °F 29.34 in Calm     32% 0.1 in meteobridge W/m2
02:39 47.5 °F 19 °F 29.33 in Calm     32% 0.1 in meteobridge W/m2
02:44 47.3 °F 18.9 °F 29.33 in Calm     32% 0.09 in meteobridge W/m2
02:49 47.3 °F 18.9 °F 29.33 in Calm     32% 0.09 in meteobridge W/m2
02:54 47.1 °F 18.7 °F 29.32 in Calm     32% 0.07 in meteobridge W/m2
02:59 47.1 °F 18.7 °F 29.32 in NNW 0.9 mph 1 mph 32% 0.06 in meteobridge W/m2
03:04 47.1 °F 18.7 °F 29.32 in Calm     32% 0.05 in meteobridge W/m2
03:09 47.1 °F 18.7 °F 29.32 in Calm     32% 0.04 in meteobridge W/m2
03:14 47.1 °F 18.7 °F 29.32 in Calm     32% 0.04 in meteobridge W/m2
03:19 47.1 °F 18.7 °F 29.32 in Calm     32% 0.05 in meteobridge W/m2
03:24 46.9 °F 18.7 °F 29.32 in Calm     32% 0.04 in meteobridge W/m2
03:29 46.9 °F 18.7 °F 29.32 in Calm     32% 0.05 in meteobridge W/m2
03:34 46.9 °F 18.7 °F 29.32 in Calm     32% 0.04 in meteobridge W/m2
03:39 46.9 °F 18.7 °F 29.32 in Calm     32% 0.04 in meteobridge W/m2
03:44 46.9 °F 18.7 °F 29.32 in Calm     32% 0.05 in meteobridge W/m2
03:49 46.9 °F 18.7 °F 29.32 in Calm     32% 0.06 in meteobridge W/m2
03:54 46.9 °F 18.7 °F 29.32 in Calm     32% 0.07 in meteobridge W/m2
03:59 46.8 °F 18.5 °F 29.32 in Calm     32% 0.08 in meteobridge W/m2
04:04 46.8 °F 18.5 °F 29.32 in Calm   2 mph 32% 0.1 in meteobridge W/m2
04:09 46.6 °F 18.3 °F 29.32 in Calm     32% 0.12 in meteobridge W/m2
04:14 46.4 °F 18.1 °F 29.32 in Calm     32% 0.14 in meteobridge W/m2
04:19 46.4 °F 18.1 °F 29.32 in WNW 0.9 mph 1 mph 32% 0.14 in meteobridge W/m2
04:24 46.2 °F 18 °F 29.32 in Calm     32% 0.16 in meteobridge W/m2
04:29 46.2 °F 18 °F 29.32 in Calm     32% 0.17 in meteobridge W/m2
04:34 46 °F 17.8 °F 29.32 in Calm     32% 0.18 in meteobridge W/m2
04:39 46 °F 17.8 °F 29.31 in North 2 mph 2 mph 32% 0.18 in meteobridge W/m2
04:44 46 °F 17.8 °F 29.31 in Calm   3 mph 32% 0.18 in meteobridge W/m2
04:49 46 °F 17.8 °F 29.30 in Calm     32% 0.17 in meteobridge W/m2
04:54 46 °F 17.8 °F 29.30 in Calm     32% 0.17 in meteobridge W/m2
04:59 46 °F 17.8 °F 29.30 in Calm     32% 0.17 in meteobridge W/m2
05:04 46 °F 17.8 °F 29.30 in Calm     32% 0.15 in meteobridge W/m2
05:09 45.9 °F 17.6 °F 29.30 in Calm     32% 0.14 in meteobridge W/m2
05:14 46 °F 17.8 °F 29.30 in Calm     32% 0.12 in meteobridge W/m2
05:19 46 °F 17.8 °F 29.29 in Calm     32% 0.11 in meteobridge W/m2
05:24 46 °F 17.8 °F 29.29 in Calm     32% 0.09 in meteobridge W/m2
05:29 45.9 °F 17.6 °F 29.29 in Calm     32% 0.07 in meteobridge W/m2
05:34 45.9 °F 17.6 °F 29.28 in Calm     32% 0.07 in meteobridge W/m2
05:39 45.9 °F 17.6 °F 29.29 in NNW 0.9 mph 1 mph 32% 0.06 in meteobridge W/m2
05:44 45.9 °F 17.6 °F 29.28 in Calm   1 mph 32% 0.05 in meteobridge W/m2
05:49 45.7 °F 17.4 °F 29.28 in Calm     32% 0.04 in meteobridge W/m2
05:54 45.7 °F 17.4 °F 29.28 in Calm     32% 0.03 in meteobridge W/m2
05:59 45.7 °F 17.4 °F 29.29 in Calm     32% 0.03 in meteobridge W/m2
06:04 45.7 °F 17.4 °F 29.29 in Calm   2 mph 32% 0.02 in meteobridge W/m2
06:09 45.5 °F 17.4 °F 29.29 in Calm     32% 0.01 in meteobridge W/m2
06:14 45.5 °F 17.4 °F 29.29 in Calm     32% 0.02 in meteobridge W/m2
06:19 45.5 °F 17.4 °F 29.29 in Calm     32% 0.02 in meteobridge W/m2
06:24 45.3 °F 17.2 °F 29.29 in Calm     32% 0.02 in meteobridge W/m2
06:29 45.3 °F 17.2 °F 29.29 in Calm     32% 0.02 in meteobridge W/m2
06:34 45.3 °F 17.2 °F 29.29 in Calm   1 mph 32% 0.01 in meteobridge W/m2
06:39 45.3 °F 17.2 °F 29.29 in Calm   1 mph 32% 0.01 in meteobridge W/m2
06:44 45.1 °F 17.1 °F 29.30 in Calm     32% 0.01 in meteobridge W/m2
06:49 45.1 °F 17.1 °F 29.30 in Calm     32% 0.01 in meteobridge W/m2
06:54 45.1 °F 17.1 °F 29.30 in Calm   1 mph 32% 0.01 in meteobridge W/m2
06:59 45.1 °F 17.1 °F 29.30 in Calm   1 mph 32% 0.01 in meteobridge W/m2
07:04 45.1 °F 17.1 °F 29.30 in NW 0.9 mph 1 mph 32% 0.01 in meteobridge W/m2
07:09 45.1 °F 17.1 °F 29.30 in Calm     32% 0.01 in meteobridge W/m2
07:14 45 °F 16.9 °F 29.30 in NW 2 mph 2 mph 32% 0 in meteobridge W/m2
07:19 45 °F 16.9 °F 29.30 in Calm   2 mph 32% 0 in meteobridge W/m2
07:24 45 °F 16.9 °F 29.31 in Calm   2 mph 32% 0 in meteobridge W/m2
07:29 45 °F 16.9 °F 29.31 in Calm     32% 0.01 in meteobridge W/m2
07:34 44.8 °F 16.7 °F 29.31 in Calm     32% 0.01 in meteobridge W/m2
07:39 44.8 °F 16.7 °F 29.31 in Calm     32% 0.01 in meteobridge W/m2
07:44 44.8 °F 16.7 °F 29.31 in Calm   4 mph 32% 0.02 in meteobridge W/m2
07:49 44.8 °F 16.7 °F 29.32 in Calm   1 mph 32% 0.02 in meteobridge W/m2
07:54 44.6 °F 16.5 °F 29.32 in Calm     32% 0.02 in meteobridge W/m2
07:59 44.6 °F 16.5 °F 29.32 in Calm     32% 0.03 in meteobridge W/m2
08:04 44.4 °F 17.1 °F 29.32 in NW 2 mph 2 mph 33% 0.03 in meteobridge W/m2
08:09 44.4 °F 17.1 °F 29.32 in Calm   4 mph 33% 0.03 in meteobridge W/m2
08:14 44.4 °F 17.1 °F 29.32 in Calm     33% 0.04 in meteobridge W/m2
08:19 44.4 °F 17.1 °F 29.33 in Calm     33% 0.04 in meteobridge W/m2
08:24 44.4 °F 17.1 °F 29.33 in Calm   1 mph 33% 0.04 in meteobridge W/m2
08:29 44.2 °F 16.9 °F 29.34 in Calm   2 mph 33% 0.03 in meteobridge W/m2
08:34 44.2 °F 16.9 °F 29.34 in Calm   4 mph 33% 0.03 in meteobridge W/m2
08:39 44.2 °F 16.9 °F 29.34 in Calm   4 mph 33% 0.03 in meteobridge W/m2
08:44 44.2 °F 16.9 °F 29.34 in Calm     33% 0.03 in meteobridge W/m2
08:49 44.2 °F 16.9 °F 29.34 in Calm     33% 0.03 in meteobridge W/m2
08:54 44.2 °F 16.9 °F 29.35 in Calm     33% 0.04 in meteobridge W/m2
08:59 44.2 °F 16.9 °F 29.35 in Calm     33% 0.05 in meteobridge W/m2
09:04 44.2 °F 16.9 °F 29.36 in Calm     33% 0.05 in meteobridge W/m2
09:09 44.2 °F 16.9 °F 29.36 in Calm   1 mph 33% 0.05 in meteobridge W/m2
09:14 44.1 °F 16.7 °F 29.36 in Calm   4 mph 33% 0.05 in meteobridge W/m2
09:19 44.1 °F 16.7 °F 29.37 in Calm     33% 0.05 in meteobridge W/m2
09:24 44.1 °F 16.7 °F 29.37 in Calm     33% 0.06 in meteobridge W/m2
09:29 44.1 °F 16.7 °F 29.37 in Calm     33% 0.06 in meteobridge W/m2
09:34 44.1 °F 16.7 °F 29.38 in Calm   1 mph 33% 0.06 in meteobridge W/m2
09:39 44.1 °F 16.7 °F 29.38 in Calm   3 mph 33% 0.06 in meteobridge W/m2
09:44 43.9 °F 16.7 °F 29.39 in Calm     33% 0.05 in meteobridge W/m2
09:49 43.9 °F 16.7 °F 29.39 in Calm   4 mph 33% 0.05 in meteobridge W/m2
09:54 43.9 °F 16.7 °F 29.39 in Calm     33% 0.04 in meteobridge W/m2
09:59 43.7 °F 16.5 °F 29.39 in West 0.9 mph 2 mph 33% 0.03 in meteobridge W/m2
10:04 43.5 °F 16.3 °F 29.40 in Calm   4 mph 33% 0.02 in meteobridge W/m2
10:09 43.5 °F 16.3 °F 29.40 in North 2 mph 4 mph 33% 0.01 in meteobridge W/m2
10:14 43.5 °F 16.3 °F 29.40 in Calm   1 mph 33% 0.01 in meteobridge W/m2
10:19 43.5 °F 16.3 °F 29.41 in Calm   5 mph 33% 0.01 in meteobridge W/m2
10:24 43.3 °F 16.2 °F 29.41 in Calm   2 mph 33% 0 in meteobridge W/m2
10:29 43.3 °F 16.2 °F 29.42 in Calm   3 mph 33% 0 in meteobridge W/m2
10:34 43.3 °F 16.2 °F 29.42 in Calm   3 mph 33% 0 in meteobridge W/m2
10:39 43.2 °F 16 °F 29.43 in Calm   5 mph 33% 0 in meteobridge W/m2
10:44 43.3 °F 16.2 °F 29.43 in Calm     33% 0 in meteobridge W/m2
10:49 43.3 °F 16.2 °F 29.43 in Calm     33% 0 in meteobridge W/m2
10:54 43.3 °F 16.2 °F 29.43 in Calm   2 mph 33% 0 in meteobridge W/m2
10:59 43.3 °F 16.2 °F 29.44 in Calm   3 mph 33% 0 in meteobridge W/m2
11:04 43.5 °F 16.3 °F 29.44 in Calm   3 mph 33% 0 in meteobridge W/m2
11:09 43.5 °F 16.3 °F 29.44 in Calm   9 mph 33% 0 in meteobridge W/m2
11:14 43.5 °F 16.3 °F 29.44 in Calm   10 mph 33% 0 in meteobridge W/m2
11:19 43.7 °F 16.5 °F 29.44 in Calm   10 mph 33% 0 in meteobridge W/m2
11:24 43.9 °F 16.7 °F 29.44 in Calm   2 mph 33% 0 in meteobridge W/m2
11:29 43.9 °F 16.7 °F 29.44 in Calm   3 mph 33% 0 in meteobridge W/m2
11:34 43.9 °F 17.2 °F 29.44 in Calm   5 mph 34% 0 in meteobridge W/m2
11:39 43.9 °F 17.2 °F 29.45 in Calm   5 mph 34% 0 in meteobridge W/m2
11:44 43.9 °F 17.2 °F 29.45 in Calm     34% 0 in meteobridge W/m2
11:49 43.9 °F 17.2 °F 29.45 in Calm   6 mph 34% 0 in meteobridge W/m2
11:54 43.5 °F 17.6 °F 29.45 in Calm   3 mph 35% 0 in meteobridge W/m2
11:59 43.5 °F 17.6 °F 29.46 in Calm   4 mph 35% 0 in meteobridge W/m2
12:04 43.3 °F 18.1 °F 29.46 in Calm   8 mph 36% 0 in meteobridge W/m2
12:09 43.2 °F 18.7 °F 29.46 in WNW 2.9 mph 7 mph 37% 0 in meteobridge W/m2
12:14 43.2 °F 19.2 °F 29.46 in WSW 4 mph 6 mph 38% 0.01 in meteobridge W/m2
12:19 43 °F 19 °F 29.46 in Calm   2 mph 38% 0.01 in meteobridge W/m2
12:24 42.8 °F 18.9 °F 29.47 in NNE 0.9 mph 5 mph 38% 0.01 in meteobridge W/m2
12:29 42.8 °F 18.9 °F 29.47 in East 4 mph 4 mph 38% 0.01 in meteobridge W/m2
12:34 42.6 °F 18.9 °F 29.47 in Calm   8 mph 38% 0.01 in meteobridge W/m2
12:39 42.6 °F 18.9 °F 29.47 in Calm   3 mph 38% 0.01 in meteobridge W/m2
12:44 42.6 °F 18.1 °F 29.47 in Calm     37% 0.02 in meteobridge W/m2
12:49 42.6 °F 18.1 °F 29.47 in Calm   5 mph 37% 0.02 in meteobridge W/m2
12:54 42.6 °F 17.6 °F 29.47 in Calm   3 mph 36% 0.02 in meteobridge W/m2
12:59 42.6 °F 17.6 °F 29.48 in Calm   10 mph 36% 0.02 in meteobridge W/m2
13:04 42.6 °F 17.6 °F 29.48 in Calm   4 mph 36% 0.02 in meteobridge W/m2
13:09 42.6 °F 17.6 °F 29.48 in Calm   3 mph 36% 0.02 in meteobridge W/m2
13:14 42.8 °F 17.6 °F 29.49 in WNW 2 mph 10 mph 36% 0.01 in meteobridge W/m2
13:19 42.8 °F 17.6 °F 29.49 in Calm   5 mph 36% 0.01 in meteobridge W/m2
13:24 42.6 °F 18.1 °F 29.49 in Calm   6 mph 37% 0.01 in meteobridge W/m2
13:29 42.6 °F 18.1 °F 29.49 in Calm   2 mph 37% 0.01 in meteobridge W/m2
13:34 42.6 °F 18.1 °F 29.49 in NW 2 mph 5 mph 37% 0.01 in meteobridge W/m2
13:39 42.8 °F 18.3 °F 29.49 in Calm   2 mph 37% 0.01 in meteobridge W/m2
13:44 43 °F 18.5 °F 29.49 in Calm   5 mph 37% 0 in meteobridge W/m2
13:49 42.8 °F 18.9 °F 29.49 in Calm   7 mph 38% 0 in meteobridge W/m2
13:54 42.6 °F 18.9 °F 29.50 in Calm     38% 0 in meteobridge W/m2
13:59 42.4 °F 19.2 °F 29.50 in Calm     39% 0 in meteobridge W/m2
14:04 42.4 °F 19.2 °F 29.50 in Calm     39% 0 in meteobridge W/m2
14:09 42.4 °F 18.7 °F 29.51 in Calm     38% 0 in meteobridge W/m2
14:14 42.3 °F 18.5 °F 29.51 in Calm   2 mph 38% 0 in meteobridge W/m2
14:19 42.1 °F 18.3 °F 29.51 in Calm   4 mph 38% 0 in meteobridge W/m2
14:24 42.1 °F 18.3 °F 29.52 in WNW 0.9 mph 1 mph 38% 0.01 in meteobridge W/m2
14:29 42.1 °F 18.3 °F 29.52 in Calm   7 mph 38% 0.01 in meteobridge W/m2
14:34 42.1 °F 17.6 °F 29.52 in WSW 2.9 mph 4 mph 37% 0.01 in meteobridge W/m2
14:39 41.9 °F 18.1 °F 29.53 in Calm     38% 0.01 in meteobridge W/m2
14:44 42.1 °F 17.6 °F 29.53 in Calm   2 mph 37% 0.01 in meteobridge W/m2
14:49 42.1 °F 17.6 °F 29.53 in WNW 2.9 mph 3 mph 37% 0.01 in meteobridge W/m2
14:54 42.1 °F 17.6 °F 29.54 in Calm     37% 0.01 in meteobridge W/m2
14:59 42.3 °F 17.8 °F 29.54 in Calm   3 mph 37% 0.01 in meteobridge W/m2
15:04 42.1 °F 17.6 °F 29.54 in Calm   3 mph 37% 0.01 in meteobridge W/m2
15:09 42.1 °F 18.3 °F 29.54 in Calm   3 mph 38% 0.01 in meteobridge W/m2
15:14 41.7 °F 18.5 °F 29.55 in Calm   6 mph 39% 0.01 in meteobridge W/m2
15:19 41.7 °F 18.5 °F 29.55 in Calm   3 mph 39% 0.01 in meteobridge W/m2
15:24 41.7 °F 18.5 °F 29.56 in Calm   3 mph 39% 0 in meteobridge W/m2
15:29 41.7 °F 18.5 °F 29.56 in NW 0.9 mph 3 mph 39% 0 in meteobridge W/m2
15:34 41.5 °F 18.5 °F 29.56 in NE 0.9 mph 7 mph 39% 0 in meteobridge W/m2
15:39 41.5 °F 19 °F 29.57 in NNE 0.9 mph 3 mph 40% 0 in meteobridge W/m2
15:44 41.5 °F 19 °F 29.57 in Calm   5 mph 40% 0 in meteobridge W/m2
15:49 41.7 °F 19.8 °F 29.57 in Calm   5 mph 41% 0 in meteobridge W/m2
15:54 41.7 °F 19.8 °F 29.58 in Calm   1 mph 41% 0 in meteobridge W/m2
15:59 41.7 °F 19.8 °F 29.58 in NNW 2 mph 6 mph 41% 0 in meteobridge W/m2
16:04 41.7 °F 20.3 °F 29.59 in Calm   7 mph 42% 0 in meteobridge W/m2
16:09 41.7 °F 20.3 °F 29.59 in Calm   1 mph 42% 0 in meteobridge W/m2
16:14 41.7 °F 19.8 °F 29.59 in Calm   3 mph 41% 0 in meteobridge W/m2
16:19 41.5 °F 19.6 °F 29.60 in Calm   3 mph 41% 0 in meteobridge W/m2
16:24 41.5 °F 19.6 °F 29.61 in Calm   1 mph 41% 0 in meteobridge W/m2
16:29 41.4 °F 19.4 °F 29.61 in WNW 0.9 mph 4 mph 41% 0 in meteobridge W/m2
16:34 41.2 °F 19.2 °F 29.61 in Calm   3 mph 41% 0 in meteobridge W/m2
16:39 41.2 °F 19.2 °F 29.62 in Calm     41% 0 in meteobridge W/m2
16:44 41 °F 19 °F 29.62 in West 0.9 mph 3 mph 41% 0 in meteobridge W/m2
16:49 40.8 °F 18.3 °F 29.63 in Calm   5 mph 40% 0 in meteobridge W/m2
16:54 40.8 °F 18.9 °F 29.63 in NW 0.9 mph 2 mph 41% 0 in meteobridge W/m2
16:59 40.6 °F 18.1 °F 29.64 in Calm   1 mph 40% 0 in meteobridge W/m2
17:04 40.6 °F 18.1 °F 29.64 in Calm   7 mph 40% 0 in meteobridge W/m2
17:09 40.6 °F 18.1 °F 29.64 in Calm     40% 0 in meteobridge W/m2
17:14 40.5 °F 18 °F 29.65 in Calm   2 mph 40% 0.01 in meteobridge W/m2
17:19 40.5 °F 17.4 °F 29.65 in Calm   2 mph 39% 0.01 in meteobridge W/m2
17:24 40.5 °F 17.4 °F 29.65 in Calm   2 mph 39% 0.01 in meteobridge W/m2
17:28 40.3 °F 17.2 °F 29.66 in WNW 4 mph 15 mph 39% 0.01 in meteobridge W/m2
17:34 40.1 °F 17.1 °F 29.66 in North 0.9 mph 1 mph 39% 0.01 in meteobridge W/m2
17:39 40.1 °F 17.1 °F 29.67 in Calm   1 mph 39% 0.01 in meteobridge W/m2
17:44 40.1 °F 17.1 °F 29.67 in WNW 2.9 mph 3 mph 39% 0.01 in meteobridge W/m2
17:49 39.9 °F 16.9 °F 29.67 in West 2.9 mph 5 mph 39% 0.01 in meteobridge W/m2
17:54 39.9 °F 16.9 °F 29.68 in Calm     39% 0.01 in meteobridge W/m2
17:59 39.9 °F 16.9 °F 29.68 in Calm   4 mph 39% 0.01 in meteobridge W/m2
18:04 39.9 °F 16.9 °F 29.69 in Calm     39% 0.01 in meteobridge W/m2
18:09 39.9 °F 16.9 °F 29.69 in NNE 0.9 mph 3 mph 39% 0.01 in meteobridge W/m2
18:14 39.7 °F 16.9 °F 29.70 in Calm     39% 0 in meteobridge W/m2
18:19 39.9 °F 16.9 °F 29.70 in Calm   1 mph 39% 0 in meteobridge W/m2
18:24 39.7 °F 16.2 °F 29.70 in WNW 0.9 mph 3 mph 38% 0 in meteobridge W/m2
18:29 39.7 °F 16.9 °F 29.71 in Calm   10 mph 39% 0 in meteobridge W/m2
18:34 39.6 °F 16 °F 29.71 in Calm   1 mph 38% 0.01 in meteobridge W/m2
18:39 39.6 °F 16.7 °F 29.72 in NW 0.9 mph 4 mph 39% 0.01 in meteobridge W/m2
18:44 39.6 °F 16.7 °F 29.72 in Calm   3 mph 39% 0.01 in meteobridge W/m2
18:49 39.4 °F 16.5 °F 29.72 in Calm   2 mph 39% 0.01 in meteobridge W/m2
18:54 39.4 °F 16.5 °F 29.73 in Calm   2 mph 39% 0.01 in meteobridge W/m2
18:59 39.2 °F 16.3 °F 29.73 in WSW 0.9 mph 4 mph 39% 0.01 in meteobridge W/m2
19:04 39.2 °F 16.3 °F 29.73 in Calm   3 mph 39% 0.02 in meteobridge W/m2
19:09 39.2 °F 15.8 °F 29.73 in Calm     38% 0.02 in meteobridge W/m2
19:14 39 °F 15.6 °F 29.74 in Calm   5 mph 38% 0.02 in meteobridge W/m2
19:19 39 °F 15.6 °F 29.74 in NNW 2 mph 2 mph 38% 0.02 in meteobridge W/m2
19:24 38.8 °F 15.4 °F 29.74 in Calm   3 mph 38% 0.02 in meteobridge W/m2
19:29 38.8 °F 15.4 °F 29.75 in Calm   3 mph 38% 0.02 in meteobridge W/m2
19:34 38.8 °F 15.4 °F 29.75 in Calm   3 mph 38% 0.01 in meteobridge W/m2
19:39 38.7 °F 15.3 °F 29.75 in NW 0.9 mph 4 mph 38% 0.01 in meteobridge W/m2
19:44 38.7 °F 15.3 °F 29.76 in Calm   1 mph 38% 0.01 in meteobridge W/m2
19:49 38.7 °F 15.3 °F 29.77 in Calm     38% 0.01 in meteobridge W/m2
19:54 38.7 °F 15.3 °F 29.77 in Calm     38% 0.01 in meteobridge W/m2
19:59 38.7 °F 15.3 °F 29.77 in NNW 0.9 mph 2 mph 38% 0.01 in meteobridge W/m2
20:04 38.7 °F 15.3 °F 29.77 in Calm   6 mph 38% 0 in meteobridge W/m2
20:09 38.5 °F 15.1 °F 29.78 in Calm     38% 0 in meteobridge W/m2
20:14 38.5 °F 15.1 °F 29.78 in Calm     38% 0 in meteobridge W/m2
20:19 38.5 °F 15.1 °F 29.78 in Calm   1 mph 38% 0 in meteobridge W/m2
20:24 38.7 °F 15.3 °F 29.78 in NNW 0.9 mph 1 mph 38% 0 in meteobridge W/m2
20:29 38.5 °F 15.1 °F 29.79 in Calm     38% 0 in meteobridge W/m2
20:34 38.5 °F 15.1 °F 29.79 in Calm     38% 0 in meteobridge W/m2
20:39 38.5 °F 15.1 °F 29.79 in Calm   1 mph 38% 0 in meteobridge W/m2
20:44 38.5 °F 15.1 °F 29.79 in SSW 0.9 mph 3 mph 38% 0 in meteobridge W/m2
20:49 38.5 °F 15.1 °F 29.80 in Calm   1 mph 38% 0 in meteobridge W/m2
20:54 38.5 °F 15.1 °F 29.80 in Calm     38% 0 in meteobridge W/m2
20:59 38.5 °F 15.1 °F 29.80 in WNW 2.9 mph 6 mph 38% 0 in meteobridge W/m2
21:04 38.5 °F 15.6 °F 29.81 in Calm     39% 0 in meteobridge W/m2
21:09 38.5 °F 15.6 °F 29.81 in Calm     39% 0 in meteobridge W/m2
21:14 38.5 °F 15.6 °F 29.82 in Calm     39% 0 in meteobridge W/m2
21:19 38.5 °F 15.6 °F 29.82 in Calm     39% 0 in meteobridge W/m2
21:24 38.5 °F 15.6 °F 29.82 in Calm     39% 0 in meteobridge W/m2
21:29 38.5 °F 15.6 °F 29.82 in Calm     39% 0 in meteobridge W/m2
21:34 38.5 °F 15.6 °F 29.83 in Calm   1 mph 39% 0 in meteobridge W/m2
21:39 38.5 °F 15.6 °F 29.83 in Calm   2 mph 39% 0 in meteobridge W/m2
21:44 38.3 °F 15.4 °F 29.83 in Calm   7 mph 39% 0 in meteobridge W/m2
21:49 38.3 °F 15.4 °F 29.83 in Calm   1 mph 39% 0 in meteobridge W/m2
21:54 38.1 °F 16 °F 29.83 in Calm     40% 0 in meteobridge W/m2
21:59 38.3 °F 16.2 °F 29.83 in Calm   4 mph 40% 0 in meteobridge W/m2
22:04 38.1 °F 16 °F 29.84 in Calm     40% 0 in meteobridge W/m2
22:09 38.1 °F 16 °F 29.84 in Calm   3 mph 40% 0 in meteobridge W/m2
22:14 38.1 °F 16 °F 29.85 in Calm     40% 0 in meteobridge W/m2
22:19 38.1 °F 16 °F 29.86 in Calm   5 mph 40% 0 in meteobridge W/m2
22:24 38.1 °F 16 °F 29.87 in WNW 0.9 mph 2 mph 40% 0 in meteobridge W/m2
22:29 38.1 °F 16.5 °F 29.87 in Calm   1 mph 41% 0 in meteobridge W/m2
22:34 38.1 °F 16.5 °F 29.87 in Calm   1 mph 41% 0 in meteobridge W/m2
22:39 37.9 °F 16.3 °F 29.87 in Calm   5 mph 41% 0 in meteobridge W/m2
22:44 37.9 °F 16.9 °F 29.87 in NW 2.9 mph 5 mph 42% 0 in meteobridge W/m2
22:49 37.9 °F 16.9 °F 29.88 in Calm   1 mph 42% 0 in meteobridge W/m2
22:54 37.9 °F 16.9 °F 29.88 in Calm   6 mph 42% 0 in meteobridge W/m2
22:59 37.9 °F 16.3 °F 29.89 in NE 2 mph 3 mph 41% 0 in meteobridge W/m2
23:04 37.9 °F 16.9 °F 29.89 in Calm   1 mph 42% 0 in meteobridge W/m2
23:09 37.9 °F 16.9 °F 29.88 in Calm     42% 0 in meteobridge W/m2
23:14 37.9 °F 16.9 °F 29.89 in Calm   5 mph 42% 0 in meteobridge W/m2
23:19 37.9 °F 16.9 °F 29.89 in NW 2.9 mph 6 mph 42% 0 in meteobridge W/m2
23:24 37.8 °F 16.7 °F 29.89 in Calm     42% 0 in meteobridge W/m2
23:29 37.8 °F 16.2 °F 29.89 in Calm     41% 0 in meteobridge W/m2
23:34 37.8 °F 16.2 °F 29.90 in Calm     41% 0 in meteobridge W/m2
23:39 37.8 °F 16.2 °F 29.90 in Calm     41% 0 in meteobridge W/m2
23:44 37.8 °F 15.6 °F 29.90 in Calm     40% 0 in meteobridge W/m2
23:49 37.8 °F 15.6 °F 29.90 in Calm     40% 0 in meteobridge W/m2
23:54 37.6 °F 15.4 °F 29.90 in Calm     40% 0 in meteobridge W/m2
23:59 37.6 °F 15.4 °F 29.90 in NW 2 mph 2 mph 40% 0 in meteobridge W/m2
EllijayWeather
Compliments of Weather Underground - 2.5 mb